HAZ0528 ZGGG-ZJQH

Flight info

Callsign HAZ0528
Flight time 1h 5m
Altitude 27600
Route VIBOS9 VIBOS R473 ZUH R200 BIGRO G221 ANPIM ANPIM9ZA
Aircraft A320/M-SDE3FGHIRWY/LB1

Departure

Time 2026-05-05 13:48
Airport Guangzhou Baiyun International Airport (ZGGG)

Arrival

Time 2026-05-05 14:53
Airport Qionghai Bo'ao Airport (ZJQH)
Time Latitude Longitude Altitude Speed Heading
2026-05-05 13:18 23.38436 113.29971 56 ft 0 kts 52°
2026-05-05 13:27 23.38436 113.29970 58 ft 0 kts 52°
2026-05-05 13:39 23.38428 113.29959 51 ft 4 kts 52°
2026-05-05 13:39 23.38411 113.29936 52 ft 4 kts 52°
2026-05-05 13:40 23.38395 113.29914 50 ft 4 kts 52°
2026-05-05 13:40 23.38379 113.29891 52 ft 4 kts 52°
2026-05-05 13:40 23.38362 113.29868 51 ft 4 kts 52°
2026-05-05 13:40 23.38353 113.29856 54 ft 0 kts 52°
2026-05-05 13:43 23.38356 113.29860 53 ft 3 kts 54°
2026-05-05 13:44 23.38354 113.29906 58 ft 10 kts 122°
2026-05-05 13:44 23.38280 113.29972 51 ft 17 kts 142°
2026-05-05 13:44 23.38178 113.30075 50 ft 23 kts 117°
2026-05-05 13:44 23.38137 113.30238 57 ft 23 kts 104°
2026-05-05 13:45 23.38099 113.30412 52 ft 18 kts 103°
2026-05-05 13:45 23.38023 113.30459 57 ft 12 kts 212°
2026-05-05 13:45 23.37918 113.30427 53 ft 19 kts 195°
2026-05-05 13:45 23.37766 113.30385 52 ft 26 kts 193°
2026-05-05 13:46 23.37659 113.30356 54 ft 11 kts 186°
2026-05-05 13:46 23.37609 113.30407 53 ft 10 kts 104°
2026-05-05 13:46 23.37594 113.30475 54 ft 8 kts 102°
2026-05-05 13:46 23.37590 113.30529 58 ft 6 kts 66°
2026-05-05 13:47 23.37622 113.30547 53 ft 5 kts 14°
2026-05-05 13:47 23.37657 113.30557 51 ft 10 kts 14°
2026-05-05 13:47 23.37975 113.30645 55 ft 85 kts 13°
2026-05-05 13:47 23.38751 113.30853 55 ft 142 kts 13°
2026-05-05 13:48 23.39857 113.31149 214 ft 175 kts 14°
2026-05-05 13:48 23.41037 113.31460 933 ft 174 kts 14°
2026-05-05 13:48 23.42211 113.31789 1682 ft 174 kts 18°
2026-05-05 13:48 23.43385 113.32142 2121 ft 182 kts 18°
2026-05-05 13:49 23.44678 113.32537 2456 ft 204 kts 17°
2026-05-05 13:49 23.46126 113.32976 2762 ft 226 kts 17°
2026-05-05 13:49 23.47687 113.33446 3153 ft 246 kts 16°
2026-05-05 13:49 23.49381 113.33954 3905 ft 252 kts 15°
2026-05-05 13:50 23.51055 113.34455 4757 ft 254 kts 14°
2026-05-05 13:50 23.52777 113.34970 5559 ft 259 kts 14°
2026-05-05 13:50 23.54535 113.35494 6394 ft 265 kts 14°
2026-05-05 13:50 23.56337 113.35966 7158 ft 268 kts
2026-05-05 13:51 23.58183 113.36316 8001 ft 270 kts
2026-05-05 13:51 23.60048 113.36532 8855 ft 269 kts 352°
2026-05-05 13:51 23.61805 113.35936 9690 ft 265 kts 324°
2026-05-05 13:51 23.63139 113.34545 10229 ft 274 kts 300°
2026-05-05 13:52 23.63772 113.32527 10493 ft 294 kts 278°
2026-05-05 13:52 23.64073 113.30232 10727 ft 318 kts 277°
2026-05-05 13:52 23.64395 113.27756 10911 ft 341 kts 277°
2026-05-05 13:52 23.64743 113.25123 11240 ft 356 kts 278°
2026-05-05 13:53 23.65104 113.22438 11848 ft 362 kts 278°
2026-05-05 13:53 23.65405 113.19698 12497 ft 366 kts 271°
2026-05-05 13:53 23.65121 113.16933 13130 ft 371 kts 256°
2026-05-05 13:53 23.64111 113.14326 13747 ft 377 kts 240°
2026-05-05 13:54 23.62433 113.12120 14283 ft 384 kts 226°
2026-05-05 13:54 23.60366 113.10255 14798 ft 390 kts 216°
2026-05-05 13:54 23.57942 113.08854 15294 ft 398 kts 204°
2026-05-05 13:54 23.55245 113.08058 15784 ft 406 kts 191°
2026-05-05 13:55 23.52395 113.07907 16265 ft 413 kts 182°
2026-05-05 13:55 23.49515 113.07928 16737 ft 416 kts 182°
2026-05-05 13:55 23.46611 113.07948 17205 ft 420 kts 182°
2026-05-05 13:55 23.43675 113.07968 17673 ft 423 kts 182°
2026-05-05 13:56 23.40717 113.07984 18131 ft 426 kts 182°
2026-05-05 13:56 23.37748 113.08000 18540 ft 429 kts 182°
2026-05-05 13:56 23.34752 113.08013 18933 ft 432 kts 182°
2026-05-05 13:56 23.31764 113.08026 19326 ft 434 kts 182°
2026-05-05 13:57 23.28737 113.08079 19716 ft 438 kts 179°
2026-05-05 13:57 23.25697 113.08577 20102 ft 444 kts 169°
2026-05-05 13:57 23.22748 113.09626 20483 ft 450 kts 160°
2026-05-05 13:57 23.19849 113.10959 20874 ft 453 kts 160°
2026-05-05 13:58 23.16938 113.12293 21253 ft 456 kts 160°
2026-05-05 13:58 23.14012 113.13628 21644 ft 458 kts 160°
2026-05-05 13:58 23.11096 113.14954 22020 ft 461 kts 160°
2026-05-05 13:58 23.08129 113.16298 22397 ft 463 kts 160°
2026-05-05 13:59 23.02141 113.18997 23110 ft 468 kts 161°
2026-05-05 13:59 22.99046 113.20260 23460 ft 470 kts 164°
2026-05-05 14:00 22.92789 113.22424 24043 ft 474 kts 167°
2026-05-05 14:00 22.90700 113.23095 24211 ft 476 kts 167°
2026-05-05 14:00 22.86475 113.24463 24590 ft 479 kts 167°
2026-05-05 14:00 22.83277 113.25529 24864 ft 482 kts 167°
2026-05-05 14:01 22.80026 113.26640 25133 ft 485 kts 166°
2026-05-05 14:01 22.76815 113.27758 25391 ft 488 kts 166°
2026-05-05 14:01 22.73571 113.28896 25644 ft 490 kts 166°
2026-05-05 14:01 22.70318 113.30037 25905 ft 492 kts 166°
2026-05-05 14:02 22.67095 113.31162 26166 ft 494 kts 166°
2026-05-05 14:02 22.63771 113.32322 26416 ft 497 kts 166°
2026-05-05 14:02 22.60512 113.33453 26650 ft 499 kts 166°
2026-05-05 14:02 22.57207 113.34594 26903 ft 500 kts 167°
2026-05-05 14:03 22.53879 113.35741 27177 ft 502 kts 167°
2026-05-05 14:03 22.50539 113.36890 27398 ft 504 kts 167°
2026-05-05 14:03 22.47199 113.38038 27587 ft 505 kts 167°
2026-05-05 14:03 22.43842 113.39193 27629 ft 506 kts 167°
2026-05-05 14:04 22.40490 113.40347 27625 ft 506 kts 167°
2026-05-05 14:04 22.37132 113.41505 27626 ft 506 kts 167°
2026-05-05 14:04 22.33783 113.42637 27626 ft 504 kts 170°
2026-05-05 14:04 22.30367 113.43198 27625 ft 491 kts 185°
2026-05-05 14:05 22.27017 113.42835 27612 ft 478 kts 199°
2026-05-05 14:05 22.23935 113.41645 27630 ft 466 kts 213°
2026-05-05 14:05 22.21272 113.39750 27625 ft 454 kts 226°
2026-05-05 14:05 22.19149 113.37288 27627 ft 445 kts 239°
2026-05-05 14:06 22.17630 113.34414 27625 ft 437 kts 251°
2026-05-05 14:06 22.16508 113.31377 27623 ft 436 kts 252°
2026-05-05 14:06 22.15390 113.28339 27621 ft 438 kts 252°
2026-05-05 14:06 22.14254 113.25270 27627 ft 445 kts 252°
2026-05-05 14:07 22.13074 113.22147 27626 ft 452 kts 251°
2026-05-05 14:07 22.11808 113.19001 27625 ft 459 kts 249°
2026-05-05 14:07 22.10487 113.15866 27624 ft 462 kts 249°
2026-05-05 14:07 22.09132 113.12718 27625 ft 463 kts 249°
2026-05-05 14:08 22.07775 113.09565 27619 ft 464 kts 249°
2026-05-05 14:08 22.06432 113.06409 27619 ft 464 kts 249°
2026-05-05 14:08 22.05098 113.03235 27619 ft 464 kts 249°
2026-05-05 14:08 22.03780 113.00061 27602 ft 464 kts 249°
2026-05-05 14:09 22.02489 112.96870 27624 ft 464 kts 250°
2026-05-05 14:09 22.01236 112.93665 27616 ft 464 kts 251°
2026-05-05 14:09 22.00008 112.90460 27619 ft 464 kts 251°
2026-05-05 14:09 21.98782 112.87237 27619 ft 464 kts 251°
2026-05-05 14:10 21.97558 112.84035 27622 ft 464 kts 251°
2026-05-05 14:10 21.96317 112.80830 27619 ft 464 kts 250°
2026-05-05 14:10 21.95042 112.77616 27614 ft 465 kts 250°
2026-05-05 14:10 21.93757 112.74436 27610 ft 465 kts 250°
2026-05-05 14:11 21.92451 112.71238 27613 ft 466 kts 250°
2026-05-05 14:11 21.91147 112.68045 27613 ft 466 kts 250°
2026-05-05 14:11 21.89843 112.64847 27613 ft 466 kts 250°
2026-05-05 14:11 21.88542 112.61650 27612 ft 466 kts 250°
2026-05-05 14:12 21.87249 112.58456 27609 ft 466 kts 250°
2026-05-05 14:12 21.85957 112.55255 27606 ft 466 kts 250°
2026-05-05 14:12 21.84686 112.52092 27607 ft 466 kts 250°
2026-05-05 14:12 21.83395 112.48845 27612 ft 466 kts 250°
2026-05-05 14:13 21.82129 112.45633 27588 ft 466 kts 250°
2026-05-05 14:13 21.80882 112.42468 27584 ft 466 kts 250°
2026-05-05 14:13 21.79617 112.39263 27588 ft 466 kts 250°
2026-05-05 14:13 21.78345 112.36050 27591 ft 467 kts 250°
2026-05-05 14:14 21.77055 112.32797 27591 ft 467 kts 250°
2026-05-05 14:14 21.76211 112.30672 27589 ft 467 kts 250°
2026-05-05 14:14 21.74514 112.26408 27592 ft 468 kts 250°
2026-05-05 14:14 21.73231 112.23196 27599 ft 468 kts 250°
2026-05-05 14:15 21.71942 112.19975 27596 ft 468 kts 250°
2026-05-05 14:15 21.71073 112.17803 27600 ft 468 kts 250°
2026-05-05 14:15 21.69784 112.14583 27600 ft 468 kts 250°
2026-05-05 14:15 21.68497 112.11369 27592 ft 469 kts 250°
2026-05-05 14:16 21.67211 112.08153 27592 ft 469 kts 250°
2026-05-05 14:16 21.65922 112.04928 27594 ft 470 kts 250°
2026-05-05 14:16 21.64626 112.01695 27596 ft 470 kts 250°
2026-05-05 14:16 21.63333 111.98468 27600 ft 471 kts 250°
2026-05-05 14:17 21.62042 111.95241 27603 ft 471 kts 250°
2026-05-05 14:17 21.60751 111.92009 27603 ft 471 kts 250°
2026-05-05 14:17 21.59458 111.88778 27585 ft 471 kts 250°
2026-05-05 14:17 21.58158 111.85550 27601 ft 471 kts 249°
2026-05-05 14:18 21.56612 111.82430 27600 ft 476 kts 240°
2026-05-05 14:18 21.54582 111.79604 27604 ft 480 kts 233°
2026-05-05 14:18 21.52436 111.76916 27603 ft 481 kts 233°
2026-05-05 14:18 21.50258 111.74185 27600 ft 481 kts 233°
2026-05-05 14:19 21.48087 111.71451 27591 ft 481 kts 233°
2026-05-05 14:19 21.45918 111.68719 27594 ft 481 kts 233°
2026-05-05 14:19 21.43740 111.65978 27592 ft 481 kts 233°
2026-05-05 14:19 21.41569 111.63250 27591 ft 481 kts 233°
2026-05-05 14:20 21.39390 111.60516 27594 ft 481 kts 233°
2026-05-05 14:20 21.37218 111.57789 27595 ft 481 kts 233°
2026-05-05 14:20 21.35046 111.55059 27591 ft 481 kts 233°
2026-05-05 14:20 21.32844 111.52294 27576 ft 481 kts 233°
2026-05-05 14:21 21.30701 111.49603 27577 ft 481 kts 233°
2026-05-05 14:21 21.28522 111.46871 27574 ft 481 kts 233°
2026-05-05 14:21 21.26350 111.44154 27574 ft 481 kts 233°
2026-05-05 14:21 21.24175 111.41436 27575 ft 481 kts 233°
2026-05-05 14:22 21.21995 111.38711 27571 ft 481 kts 233°
2026-05-05 14:22 21.19817 111.35986 27573 ft 481 kts 233°
2026-05-05 14:22 21.17640 111.33260 27165 ft 481 kts 233°
2026-05-05 14:22 21.15473 111.30549 26233 ft 477 kts 233°
2026-05-05 14:23 21.13344 111.27892 25917 ft 467 kts 233°
2026-05-05 14:23 21.11227 111.25256 25702 ft 465 kts 232°
2026-05-05 14:23 21.09117 111.22632 25472 ft 465 kts 232°
2026-05-05 14:23 21.07007 111.20006 25221 ft 466 kts 232°
2026-05-05 14:24 21.04899 111.17377 24996 ft 466 kts 232°
2026-05-05 14:24 21.02782 111.14736 24776 ft 467 kts 232°
2026-05-05 14:24 21.00665 111.12094 24544 ft 468 kts 232°
2026-05-05 14:24 20.98544 111.09449 24315 ft 468 kts 232°
2026-05-05 14:25 20.96420 111.06807 24099 ft 469 kts 232°
2026-05-05 14:25 20.94290 111.04161 23878 ft 470 kts 232°
2026-05-05 14:25 20.92163 111.01506 23669 ft 471 kts 232°
2026-05-05 14:25 20.90026 110.98825 23435 ft 472 kts 232°
2026-05-05 14:26 20.87898 110.96153 23183 ft 472 kts 232°
2026-05-05 14:26 20.85776 110.93490 22921 ft 471 kts 232°
2026-05-05 14:26 20.83652 110.90824 22669 ft 469 kts 232°
2026-05-05 14:26 20.81545 110.88185 22493 ft 466 kts 232°
2026-05-05 14:27 20.79434 110.85542 22573 ft 468 kts 232°
2026-05-05 14:27 20.77318 110.82903 22571 ft 468 kts 232°
2026-05-05 14:27 20.75196 110.80260 22569 ft 468 kts 232°
2026-05-05 14:27 20.73077 110.77616 22569 ft 468 kts 232°
2026-05-05 14:28 20.70959 110.74975 22567 ft 468 kts 232°
2026-05-05 14:28 20.68845 110.72338 22571 ft 467 kts 232°
2026-05-05 14:28 20.66738 110.69708 22569 ft 467 kts 232°
2026-05-05 14:28 20.64618 110.67062 22575 ft 468 kts 232°
2026-05-05 14:29 20.62507 110.64428 22571 ft 468 kts 232°
2026-05-05 14:29 20.60393 110.61797 22571 ft 467 kts 232°
2026-05-05 14:29 20.58270 110.59158 22573 ft 468 kts 232°
2026-05-05 14:29 20.56148 110.56524 22571 ft 468 kts 232°
2026-05-05 14:30 20.54036 110.53898 22577 ft 468 kts 232°
2026-05-05 14:30 20.51938 110.51302 22571 ft 466 kts 230°
2026-05-05 14:30 20.49561 110.48885 22578 ft 469 kts 221°
2026-05-05 14:30 20.46905 110.46845 22573 ft 470 kts 217°
2026-05-05 14:31 20.44235 110.44901 22580 ft 471 kts 217°
2026-05-05 14:31 20.41535 110.42928 22567 ft 471 kts 217°
2026-05-05 14:31 20.38799 110.40927 22579 ft 471 kts 217°
2026-05-05 14:31 20.36135 110.38976 22567 ft 471 kts 217°
2026-05-05 14:32 20.33437 110.36999 22573 ft 471 kts 217°
2026-05-05 14:32 20.30734 110.35017 22578 ft 472 kts 217°
2026-05-05 14:32 20.28029 110.33036 22574 ft 472 kts 217°
2026-05-05 14:32 20.25312 110.31052 22570 ft 472 kts 217°
2026-05-05 14:33 20.22616 110.29083 22571 ft 472 kts 217°
2026-05-05 14:33 20.19898 110.27094 22564 ft 473 kts 217°
2026-05-05 14:33 20.17186 110.25107 22545 ft 474 kts 217°
2026-05-05 14:33 20.14478 110.23126 22238 ft 472 kts 217°
2026-05-05 14:34 20.11782 110.21159 21918 ft 469 kts 217°
2026-05-05 14:34 20.09088 110.19194 21524 ft 467 kts 217°
2026-05-05 14:34 20.06423 110.17255 21049 ft 463 kts 217°
2026-05-05 14:34 20.03766 110.15322 20565 ft 460 kts 217°
2026-05-05 14:35 20.01068 110.13517 20099 ft 458 kts 211°
2026-05-05 14:35 19.98194 110.12066 19639 ft 457 kts 207°
2026-05-05 14:35 19.95315 110.10679 19185 ft 454 kts 206°
2026-05-05 14:35 19.92445 110.09295 18738 ft 451 kts 206°
2026-05-05 14:36 19.89596 110.07920 18304 ft 448 kts 206°
2026-05-05 14:36 19.86773 110.06558 17802 ft 444 kts 206°
2026-05-05 14:36 19.83985 110.05212 17294 ft 441 kts 206°
2026-05-05 14:36 19.81194 110.03865 16796 ft 437 kts 206°
2026-05-05 14:37 19.78438 110.02535 16290 ft 434 kts 206°
2026-05-05 14:37 19.75699 110.01212 15831 ft 430 kts 206°
2026-05-05 14:37 19.72992 109.99906 15356 ft 427 kts 206°
2026-05-05 14:37 19.70293 109.98605 14888 ft 422 kts 206°
2026-05-05 14:38 19.67655 109.97336 14429 ft 412 kts 206°
2026-05-05 14:38 19.65082 109.96098 13979 ft 403 kts 206°
2026-05-05 14:38 19.62551 109.94880 13498 ft 395 kts 206°
2026-05-05 14:38 19.60071 109.93685 12995 ft 388 kts 206°
2026-05-05 14:39 19.57642 109.92518 12497 ft 381 kts 206°
2026-05-05 14:39 19.55271 109.91380 12016 ft 375 kts 206°
2026-05-05 14:39 19.52888 109.90235 11520 ft 369 kts 206°
2026-05-05 14:39 19.50596 109.89132 11067 ft 363 kts 206°
2026-05-05 14:40 19.48324 109.88108 10597 ft 346 kts 199°
2026-05-05 14:40 19.46028 109.87549 10140 ft 331 kts 188°
2026-05-05 14:40 19.43779 109.87482 9669 ft 318 kts 176°
2026-05-05 14:40 19.41635 109.87852 9166 ft 307 kts 166°
2026-05-05 14:41 19.39651 109.88591 8671 ft 298 kts 156°
2026-05-05 14:41 19.37878 109.89639 8249 ft 287 kts 146°
2026-05-05 14:41 19.36358 109.90935 7899 ft 277 kts 137°
2026-05-05 14:41 19.35077 109.92457 7538 ft 276 kts 127°
2026-05-05 14:42 19.34052 109.94173 7188 ft 275 kts 118°
2026-05-05 14:42 19.33300 109.96028 6831 ft 273 kts 111°
2026-05-05 14:42 19.32642 109.97908 6487 ft 272 kts 111°
2026-05-05 14:42 19.31980 109.99769 6126 ft 270 kts 111°
2026-05-05 14:43 19.31319 110.01620 5757 ft 268 kts 111°
2026-05-05 14:43 19.30664 110.03459 5395 ft 266 kts 111°
2026-05-05 14:43 19.30015 110.05285 5037 ft 263 kts 111°
2026-05-05 14:43 19.29372 110.07091 4669 ft 261 kts 111°
2026-05-05 14:44 19.28746 110.08857 4473 ft 251 kts 111°
2026-05-05 14:44 19.28148 110.10551 4352 ft 240 kts 111°
2026-05-05 14:44 19.27577 110.12168 4223 ft 229 kts 111°
2026-05-05 14:44 19.27030 110.13717 4105 ft 221 kts 111°
2026-05-05 14:45 19.26492 110.15237 3983 ft 220 kts 111°
2026-05-05 14:45 19.25962 110.16734 3862 ft 220 kts 111°
2026-05-05 14:45 19.25424 110.18247 3734 ft 219 kts 111°
2026-05-05 14:45 19.24887 110.19751 3624 ft 218 kts 111°
2026-05-05 14:46 19.24456 110.21288 3496 ft 218 kts 98°
2026-05-05 14:46 19.24456 110.22885 3374 ft 217 kts 81°
2026-05-05 14:46 19.24887 110.24377 3258 ft 209 kts 64°
2026-05-05 14:46 19.25589 110.25690 3128 ft 201 kts 61°
2026-05-05 14:47 19.26278 110.26950 3029 ft 195 kts 61°
2026-05-05 14:47 19.26949 110.28184 2944 ft 192 kts 61°
2026-05-05 14:47 19.27615 110.29405 2905 ft 191 kts 61°
2026-05-05 14:47 19.28277 110.30622 2908 ft 191 kts 61°
2026-05-05 14:48 19.28939 110.31841 2909 ft 191 kts 61°
2026-05-05 14:48 19.29561 110.33075 2907 ft 190 kts 72°
2026-05-05 14:48 19.29725 110.34445 2937 ft 195 kts 97°
2026-05-05 14:48 19.29280 110.35790 2918 ft 192 kts 124°
2026-05-05 14:49 19.28350 110.36710 2902 ft 175 kts 149°
2026-05-05 14:49 19.27344 110.37313 2765 ft 164 kts 149°
2026-05-05 14:49 19.26366 110.37906 2501 ft 156 kts 149°
2026-05-05 14:49 19.25463 110.38451 2275 ft 144 kts 149°
2026-05-05 14:50 19.24608 110.38967 2080 ft 140 kts 149°
2026-05-05 14:50 19.23769 110.39474 1901 ft 138 kts 148°
2026-05-05 14:50 19.22941 110.39973 1723 ft 137 kts 148°
2026-05-05 14:50 19.22116 110.40471 1545 ft 136 kts 149°
2026-05-05 14:51 19.21289 110.40970 1362 ft 137 kts 149°
2026-05-05 14:51 19.20463 110.41468 1182 ft 137 kts 149°
2026-05-05 14:51 19.19635 110.41967 1015 ft 137 kts 149°
2026-05-05 14:51 19.18803 110.42469 837 ft 137 kts 149°
2026-05-05 14:52 19.17973 110.42970 671 ft 137 kts 149°
2026-05-05 14:52 19.17143 110.43470 486 ft 138 kts 150°
2026-05-05 14:52 19.16308 110.43972 313 ft 138 kts 149°
2026-05-05 14:52 19.15478 110.44471 135 ft 137 kts 149°
2026-05-05 14:53 19.14668 110.44973 24 ft 127 kts 149°
2026-05-05 14:53 19.14043 110.45335 24 ft 68 kts 150°
2026-05-05 14:53 19.13791 110.45488 23 ft 37 kts 150°
2026-05-05 14:53 19.13575 110.45623 26 ft 35 kts 150°
2026-05-05 14:54 19.13409 110.45739 27 ft 19 kts 113°
2026-05-05 14:54 19.13451 110.45847 25 ft 17 kts 53°
2026-05-05 14:54 19.13562 110.45829 24 ft 18 kts 328°
2026-05-05 14:54 19.13672 110.45761 24 ft 18 kts 330°
2026-05-05 14:55 19.13728 110.45728 24 ft 8 kts 330°
2026-05-05 14:55 19.13799 110.45723 24 ft 13 kts 44°
2026-05-05 14:55 19.13880 110.45787 24 ft 18 kts 350°
2026-05-05 14:55 19.13985 110.45731 24 ft 14 kts 330°
2026-05-05 14:56 19.14077 110.45678 24 ft 6 kts 357°
2026-05-05 14:56 19.14085 110.45687 24 ft 4 kts 69°
2026-05-05 14:56 19.14110 110.45734 24 ft 0 kts 63°
2026-05-05 14:56 19.14111 110.45738 24 ft 1 kts 61°
2026-05-05 14:57 19.14112 110.45739 24 ft 0 kts 62°